FW4179 Weather Reports


Display with metric or nautical units.
time (UTC)temp
F
wind
direction
speed
MPH
gust
MPH
rain 1hr
in
rain 24hr
in
rain mn
in
humidity
%
barometer
mb
20260504044551 52 0 0.0 4.0 0.00 0.01 0.01 72 1016.9
20260504043052 52 0 0.0 3.0 0.00 0.01 0.01 72 1016.8
20260504041548 52 149 1.0 4.0 0.00 0.01 0.01 72 1016.9
20260504040104 52 149 1.0 4.0 0.00 0.01 0.01 72 1017.1
20260504034610 52 0 0.0 4.0 0.00 0.01 0.01 71 1017.3
20260504033048 53 0 0.0 2.0 0.00 0.01 0.01 69 1017.5
20260504031546 53 0 0.0 2.0 0.00 0.01 0.01 68 1017.5
20260504030104 53 0 0.0 1.0 0.00 0.01 0.01 67 1017.4
20260504024541 54 0 0.0 0.0 0.00 0.01 0.01 66 1017.3
20260504023049 55 0 0.0 0.0 0.00 0.01 0.01 64 1017.2
20260504021552 55 0 0.0 1.0 0.00 0.01 0.01 63 1017.0
20260504020051 55 0 0.0 0.0 0.00 0.01 0.01 62 1016.8
20260504014544 55 0 0.0 3.0 0.00 0.01 0.01 62 1016.4
20260504013053 56 0 0.0 0.0 0.00 0.01 0.01 60 1016.4
20260504011547 57 0 0.0 0.0 0.00 0.01 0.01 58 1016.2
20260504010050 58 0 0.0 0.0 0.00 0.01 0.01 57 1016.4
20260504004547 58 0 0.0 0.0 0.00 0.02 0.01 56 1016.4
20260504003044 59 0 0.0 0.0 0.00 0.02 0.01 55 1016.3
20260504001600 60 0 0.0 0.0 0.00 0.02 0.01 53 1016.8
20260504000047 61 0 0.0 0.0 0.00 0.02 0.01 51 1016.9
20260503234547 62 0 0.0 4.0 0.00 0.02 0.01 50 1017.1
20260503233046 62 263 2.0 6.0 0.00 0.02 0.01 46 1017.0
20260503231553 63 236 3.0 5.0 0.00 0.02 0.01 48 1016.9
20260503230045 64 0 1.0 4.0 0.00 0.02 0.01 49 1017.1
20260503224541 64 0 0.0 3.0 0.00 0.02 0.01 46 1017.3
20260503223048 64 223 1.0 5.0 0.00 0.02 0.01 45 1017.5
20260503221548 64 308 2.0 4.0 0.00 0.02 0.01 41 1017.7
20260503220049 65 265 2.0 6.0 0.00 0.02 0.01 41 1017.8
20260503214543 65 311 2.0 6.0 0.00 0.02 0.01 43 1017.9
20260503213046 65 277 2.0 6.0 0.00 0.02 0.01 46 1018.1
20260503211555 65 271 3.0 7.0 0.00 0.02 0.01 46 1018.2
20260503210047 64 0 1.0 10.0 0.00 0.02 0.01 46 1018.3
20260503204554 64 256 3.0 8.0 0.00 0.02 0.01 46 1018.5
20260503203049 64 255 3.0 7.0 0.00 0.02 0.01 50 1018.6
20260503201548 64 273 2.0 7.0 0.00 0.02 0.01 50 1019.1
20260503200052 63 263 1.0 8.0 0.00 0.02 0.01 54 1019.3
20260503194548 63 275 4.0 9.0 0.00 0.02 0.01 52 1019.6
20260503193100 62 128 3.0 7.0 0.00 0.02 0.01 52 1019.9
20260503191550 62 231 3.0 8.0 0.00 0.02 0.01 53 1020.0
20260503190059 61 312 2.0 7.0 0.00 0.02 0.01 53 1020.2
20260503184548 60 328 1.0 8.0 0.00 0.02 0.01 58 1020.4
20260503183101 60 233 2.0 7.0 0.00 0.02 0.01 56 1020.6
20260503181545 59 327 3.0 6.0 0.00 0.02 0.01 53 1020.7
20260503180057 58 134 1.0 7.0 0.00 0.02 0.01 58 1020.8
20260503174546 59 0 2.0 8.0 0.00 0.02 0.01 57 1021.1
20260503173108 57 310 3.0 7.0 0.00 0.02 0.01 59 1021.3
20260503171552 57 232 2.0 6.0 0.00 0.02 0.01 64 1021.4
20260503140104 43 134 2.0 7.0 0.00 0.02 0.01 99 1022.5
20260503081548 40 0 0.0 0.0 0.00 0.02 0.01 96 1020.4
20260503071550 42 0 0.0 0.0 0.01 0.02 0.01 96 1020.1